Weather History for PHKO - January, 2013

Change the Weather History Date:

Saturday, January 19, 2013

  Actual Average Record
Temperature  
Mean Temperature 78 °F -  
Max Temperature 80 °F 79 °F 86 °F (1984)
Min Temperature 75 °F 66 °F 63 °F (1985)
Cooling Degree Days 12    
Growing Degree Days 28 (Base 50)    
Moisture  
Dew Point 53 °F    
Average Humidity 41    
Maximum Humidity 48    
Minimum Humidity 35    
Precipitation  
Precipitation 0.00 in - - ()
Sea Level Pressure  
Sea Level Pressure 29.92 in    
Wind  
Wind Speed 13 mph (North)    
Max Wind Speed 28 mph    
Max Gust Speed 34 mph    
Visibility 10 miles    
Events      
Averages and records for this station are not official NWS values.
T = Trace of Precipitation, MM = Missing Value Source: NWS Daily Summary

Daily Weather History Graph

Daily Weather History Graph

Search for Another Location

Airport or City:

Trip Planner

Search our weather history database for the weather conditions in past years. The results will help you decide how hot, cold, wet, or windy it might be!

Date:

Astronomy

Jan. 19, 2013 Rise Set
Actual Time 7:01 AM HST 6:08 PM HST
Civil Twilight 6:38 AM HST 6:32 PM HST
Nautical Twilight 6:11 AM HST 6:59 PM HST
Astronomical Twilight 5:44 AM HST 7:25 PM HST
Moon 12:33 PM HST (1/19) 12:56 AM HST (1/19)
Length of Visible Light 11h 54m
Length of Day
11h 07m
First Quarter, 59% of the Moon is Illuminated
Jan 19
First Quarter
Jan 26
Full
Feb 3
Last Quarter
Feb 9
New
Feb 17
First Quarter

Hourly Weather History & Observations

Time (HST) Temp. Heat Index Dew Point Humidity Pressure Visibility Wind Dir Wind Speed Gust Speed Precip Events Conditions
12:53 AM - - - N/A% 29.91 in 10.0 mi NE 8.1 mph - N/A   Clear
1:53 AM - - - N/A% 29.89 in 10.0 mi NE 8.1 mph - N/A   Clear
2:53 AM - - - N/A% 29.88 in 10.0 mi North 9.2 mph - N/A   Clear
3:53 AM - - - N/A% 29.90 in 10.0 mi North 11.5 mph - N/A   Clear
4:53 AM - - - N/A% 29.90 in 10.0 mi North 8.1 mph - N/A   Clear
5:53 AM - - - N/A% 29.90 in 10.0 mi North 11.5 mph - N/A   Clear
6:53 AM - - - N/A% 29.91 in 10.0 mi North 10.4 mph - N/A   Clear
7:53 AM - - - N/A% 29.94 in 10.0 mi North 15.0 mph - N/A   Clear
8:53 AM 75.2 °F - - N/A% 29.94 in 10.0 mi North 10.4 mph - N/A   Clear
9:53 AM - - - N/A% 29.96 in 10.0 mi North 15.0 mph 21.9 mph N/A   Clear
10:53 AM 78.8 °F - 48.9 °F 35% 29.94 in 10.0 mi NNW 20.7 mph - N/A   Clear
11:53 AM 78.8 °F - 57.7 °F 48% 29.92 in 10.0 mi NNW 25.3 mph - N/A   Clear
12:53 PM - - - N/A% 29.91 in 10.0 mi North 27.6 mph 34.5 mph N/A   Clear
1:53 PM 80.6 °F 80.8 °F 57.2 °F 45% 29.88 in 10.0 mi NNW 26.5 mph 32.2 mph N/A   Clear
2:53 PM - - - N/A% 29.89 in 10.0 mi North 21.9 mph 29.9 mph N/A   Clear
3:53 PM 78.8 °F - 51.8 °F 39% 29.88 in 10.0 mi NNW 18.4 mph - N/A   Clear
4:53 PM - - - N/A% 29.90 in 10.0 mi NW 12.7 mph - N/A   Clear
5:00 PM 78.8 °F - 51.8 °F 39% 29.89 in 10.0 mi NW 10.4 mph - N/A   Clear
5:53 PM 78.8 °F - 52.0 °F 39% 29.91 in 10.0 mi North 16.1 mph - N/A   Clear
6:53 PM - - - N/A% 29.94 in 10.0 mi NNE 17.3 mph - N/A   Clear
7:53 PM - - - N/A% 29.97 in 10.0 mi NNE 11.5 mph - N/A   Clear
8:53 PM - - - N/A% 29.98 in 10.0 mi NE 15.0 mph - N/A   Clear
9:53 PM - - - N/A% 29.97 in 10.0 mi NNE 15.0 mph - N/A   Clear
10:53 PM - - - N/A% 29.96 in 10.0 mi North 8.1 mph - N/A   Clear
11:53 PM - - - N/A% 29.97 in 10.0 mi North 19.6 mph - N/A   Clear